Theta_e
306 306 314 316 313 310 314 316 314 314 314 318 319 318 321 324 326 324 331 332 334 335 336 338 338 336 336 334 331 332 331 331 330 330 330 331 331 331 329 329 332 333 333 332 331 331 331 331 330
306 310 314 314 310 311 309 309 312 312 314 317 318 322 319 324 329 329 330 331 333 334 335 337 336 335 335 333 330 330 330 330 330 330 330 330 330 330 329 330 329 329 329 329 329 329 331 331 331
307 312 313 310 306 307 309 310 309 313 316 316 317 317 319 322 324 326 329 332 333 333 334 335 335 333 334 332 330 330 330 330 329 329 328 327 327 326 324 323 324 326 326 326 325 328 329 329 329
307 312 312 310 309 308 307 310 311 313 315 317 316 313 317 320 321 323 327 330 333 333 332 334 333 332 331 332 330 330 330 329 327 325 322 317 313 311 311 311 311 311 311 311 310 310 309 309 313
310 311 307 308 309 309 308 309 311 311 313 315 316 313 317 324 323 321 323 326 331 332 331 332 331 330 330 331 330 330 329 327 324 321 316 313 312 312 312 312 311 310 310 309 309 308 308 309 308
310 309 308 308 307 308 308 312 311 310 313 314 315 313 316 322 323 320 320 322 326 330 331 330 330 330 329 329 330 330 328 324 320 316 313 312 312 312 311 309 306 305 305 305 305 305 305 305 305
306 304 307 308 308 308 309 312 309 310 310 313 315 311 315 318 321 320 320 321 322 326 329 329 329 329 327 329 329 329 326 322 318 313 311 311 311 311 309 306 304 304 304 304 304 304 304 304 304
307 304 308 307 310 310 310 312 314 310 310 313 316 312 314 316 319 322 324 323 323 323 323 326 328 327 327 328 329 327 323 317 312 311 310 311 311 309 307 305 304 304 304 304 304 304 304 304 304
306 304 306 308 308 311 311 311 311 311 312 312 313 314 315 316 320 324 325 326 325 324 321 319 325 326 326 327 327 324 319 314 312 311 310 310 311 310 307 305 304 304 304 304 304 304 304 304 304
304 303 306 307 307 309 311 310 311 309 309 309 312 313 314 316 320 321 324 325 325 324 322 317 324 325 324 324 323 319 314 311 310 310 310 310 311 310 307 304 304 304 304 304 304 304 304 304 304
305 306 307 307 310 310 311 310 312 308 307 309 311 313 314 316 321 322 322 322 320 322 320 317 322 323 322 321 319 314 312 310 309 309 310 310 310 309 306 304 304 304 304 304 304 304 304 304 304
305 305 307 308 309 309 309 311 309 308 310 312 312 312 313 316 319 319 321 323 322 321 320 318 318 319 319 318 316 314 312 311 309 309 309 309 309 308 306 304 304 303 304 304 304 304 304 304 303
306 307 307 307 307 309 310 307 308 308 312 311 311 311 313 314 315 317 319 320 321 321 319 318 317 317 316 315 314 313 311 310 309 309 309 308 308 307 305 304 303 304 304 304 304 303 303 303 303
308 307 308 308 308 308 308 309 307 308 311 311 309 310 312 313 313 316 318 319 319 318 317 317 315 315 315 314 313 312 311 309 309 308 308 308 307 305 304 303 303 304 303 303 303 303 304 304 304
308 308 309 308 309 308 309 308 308 310 311 310 310 309 310 311 312 312 312 314 315 314 314 314 314 314 314 313 312 311 310 310 308 308 308 308 306 304 303 303 303 303 303 303 303 303 303 303 303
307 307 309 309 308 309 308 311 309 311 310 308 309 310 310 310 311 311 311 312 313 314 315 315 316 315 314 313 312 311 310 309 308 307 306 305 304 303 303 303 303 303 303 303 303 303 303 302 302
305 309 307 308 308 309 308 311 309 311 309 306 307 309 310 309 310 311 310 310 311 311 313 315 316 316 315 313 311 310 309 308 307 306 305 304 303 303 303 303 303 303 303 303 302 302 302 301 301
308 306 308 308 309 309 310 309 307 310 309 308 308 309 308 309 309 311 311 310 310 311 312 315 315 315 315 313 311 309 308 307 306 306 305 304 303 302 302 303 303 303 303 302 302 301 301 300 300
308 307 308 309 309 309 310 310 309 308 307 305 307 308 308 310 311 310 310 310 310 311 311 314 315 315 314 313 310 308 307 307 306 305 304 303 303 302 302 302 302 302 302 302 301 300 300 299 299
307 308 308 307 308 308 309 309 308 307 308 308 307 308 309 310 310 309 309 309 309 310 311 311 312 313 313 312 311 308 307 306 306 305 304 303 303 302 302 302 302 302 302 301 300 299 299 299 298
306 308 308 308 308 307 309 310 309 307 306 308 308 309 309 310 312 310 309 309 309 309 309 310 311 312 312 311 310 308 306 304 304 303 303 303 302 302 302 301 301 301 301 300 298 298 298 298 297
308 306 307 308 308 311 309 312 310 310 310 309 308 308 309 310 311 311 310 309 308 308 308 308 310 310 310 309 309 308 307 305 304 304 303 302 301 301 301 301 300 300 299 298 298 298 298 297 297
307 306 306 306 309 309 309 311 309 308 309 310 310 308 311 312 312 312 311 311 311 309 308 307 308 308 308 308 307 306 306 305 304 303 302 301 301 301 300 300 299 298 297 297 297 297 296 296 296
306 306 307 307 309 310 308 309 308 308 309 309 309 310 310 312 313 312 313 312 310 309 307 306 306 306 307 307 306 305 305 304 303 302 301 301 300 300 300 299 298 297 297 297 296 295 295 295 295
306 308 310 310 310 310 307 310 309 306 306 307 308 309 309 310 310 310 310 310 309 308 306 305 304 303 303 303 304 304 303 302 302 301 301 301 300 300 299 297 296 296 296 296 295 294 294 294 294
308 308 308 305 302 305 304 309 308 306 307 307 307 308 308 309 310 310 309 309 308 307 305 305 304 303 303 302 303 303 302 301 300 300 300 299 299 299 296 296 296 296 295 295 294 294 293 293 293
307 309 306 298 290 305 304 306 305 304 304 303 302 305 307 308 310 309 308 307 306 305 304 304 303 303 302 303 303 301 300 299 299 299 298 298 298 296 295 296 296 295 295 294 294 294 293 293 293
303 304 306 308 309 309 304 302 305 303 300 302 300 299 302 305 306 307 304 303 303 303 303 302 302 303 302 301 301 300 299 298 298 298 298 296 295 295 296 295 295 294 294 294 293 294 293 293 293
306 305 303 303 304 300 295 297 299 304 299 296 297 297 300 300 301 301 301 300 301 302 302 301 301 301 300 299 299 298 298 297 297 296 295 294 295 295 295 295 294 294 294 293 292 293 293 292 292
302 302 305 305 300 299 296 302 289 287 284 287 291 297 297 298 298 298 299 300 300 300 300 299 299 299 298 298 298 297 297 296 295 295 294 295 295 295 294 294 294 294 293 293 293 293 293 292 292
Wind_Speed
4 6 10 7 3 4 4 8 4 7 1 4 7 4 7 7 3 4 19 20 21 25 25 22 21 18 16 12 11 11 11 11 11 11 10 10 10 11 10 9 9 8 8 7 5 4 3 3 2
6 8 7 5 4 2 5 6 10 9 6 8 13 13 4 2 7 13 26 17 22 24 27 23 19 16 15 13 13 13 12 13 13 12 11 10 10 10 8 7 6 5 4 3 2 2 2 3 4
8 10 5 4 5 6 5 6 10 7 11 8 5 3 10 11 11 21 17 26 26 25 26 24 20 16 15 14 14 14 13 13 12 11 11 10 10 9 8 7 6 5 4 4 3 4 5 6 7
9 6 2 3 9 7 7 2 3 3 4 4 7 5 6 11 17 20 21 25 28 26 27 24 19 16 17 17 15 15 15 15 14 13 12 12 11 10 9 7 6 6 5 5 5 5 6 7 7
11 4 2 4 8 6 7 10 8 6 4 8 9 6 6 14 14 18 22 25 28 28 27 25 22 19 17 20 18 18 17 16 16 14 13 12 11 9 8 7 7 7 7 7 8 8 9 10 10
6 3 1 8 7 5 7 22 15 8 9 5 6 13 7 11 16 18 22 24 25 27 28 25 24 23 18 21 21 19 18 17 15 14 13 12 10 9 7 6 6 6 6 6 7 8 9 10 11
6 4 5 4 6 5 10 7 7 18 11 10 10 8 6 17 18 20 23 22 23 24 27 26 27 26 21 22 20 19 18 17 16 15 13 12 10 8 7 7 6 6 5 5 5 6 7 8 9
7 4 4 6 11 14 7 6 16 18 14 8 10 7 7 24 22 23 22 22 22 23 23 27 27 25 25 23 21 20 19 18 16 15 14 12 10 9 8 8 7 6 5 5 5 6 6 7 8
9 3 7 10 10 10 5 3 6 6 6 8 14 9 9 24 29 27 26 25 25 24 23 23 26 26 24 22 21 20 20 19 18 16 14 12 11 10 9 8 7 6 6 6 6 7 8 9 10
7 6 12 8 10 7 6 4 7 4 7 5 10 11 13 28 34 34 35 34 31 29 26 23 26 26 26 24 23 22 21 20 19 17 15 14 13 12 10 9 9 8 8 8 9 9 10 11 12
9 15 18 7 16 15 4 5 5 3 4 13 21 18 20 34 37 36 36 35 32 31 27 25 26 27 27 26 25 24 23 21 19 18 17 16 15 13 12 10 10 10 10 10 11 11 12 12 13
7 16 24 17 23 9 5 4 4 12 16 11 21 22 25 34 37 39 38 38 35 33 29 26 26 27 27 26 26 25 24 23 21 19 18 16 14 13 12 12 12 11 11 11 12 13 13 14 14
14 2 16 31 27 19 20 9 10 11 25 15 7 23 27 34 35 37 38 36 35 34 31 29 27 28 27 28 26 26 25 24 21 20 19 17 16 15 14 13 12 11 11 12 12 12 12 12 13
6 23 24 22 22 16 11 16 11 8 18 31 19 21 27 33 34 37 40 41 39 36 34 31 30 27 28 28 27 26 25 23 23 22 20 18 17 15 14 13 12 11 11 10 10 11 12 13 14
19 14 16 17 14 8 13 16 20 28 32 28 23 20 27 32 37 40 40 43 41 39 36 34 32 29 29 27 27 27 25 24 22 21 20 19 17 16 15 14 12 11 11 11 11 13 14 15 16
4 4 18 13 7 7 14 22 9 33 34 30 36 36 32 33 38 40 41 41 42 41 39 36 34 32 30 29 29 29 27 25 23 22 21 20 18 17 16 14 13 13 12 12 13 14 15 16 16
7 10 9 9 7 8 15 16 16 28 26 26 32 39 43 41 41 41 42 41 41 40 38 38 37 34 32 30 30 30 28 26 25 23 22 21 20 19 17 16 15 14 14 14 15 15 16 16 16
17 4 6 7 10 15 18 22 7 14 27 29 30 34 35 41 42 43 43 41 39 38 38 36 37 35 33 31 31 31 29 28 27 25 24 22 21 20 18 17 16 16 16 16 16 17 17 18 18
22 12 19 14 13 4 17 23 17 15 16 11 22 30 40 41 43 43 43 39 39 40 39 39 39 38 37 37 37 36 35 33 31 28 26 24 23 22 20 19 19 18 17 17 18 18 18 17 18
19 22 21 7 8 13 18 22 7 11 16 25 26 28 25 25 36 40 43 43 44 45 43 42 41 41 41 40 39 38 35 33 29 27 27 26 24 23 22 21 20 19 19 19 19 19 19 19 17
22 22 22 15 3 13 3 18 12 6 10 17 28 39 35 34 32 36 41 46 46 47 46 45 45 43 42 42 38 36 34 31 31 32 30 28 26 24 22 22 21 20 20 19 19 20 21 18 16
23 21 23 14 7 15 8 16 15 14 16 17 24 26 34 31 31 33 41 47 48 50 48 46 45 44 43 41 40 41 40 40 38 34 30 27 25 24 22 21 20 20 20 20 20 21 20 18 16
20 20 18 14 16 14 10 8 12 8 16 20 19 25 37 41 40 41 45 48 50 53 52 47 45 44 44 42 40 39 39 36 33 30 29 26 25 23 22 20 19 20 21 20 20 19 18 17 16
19 6 16 16 12 16 23 16 21 13 19 12 19 27 34 47 50 51 51 52 57 58 52 48 46 46 45 43 42 40 37 35 34 32 31 28 25 23 22 20 20 20 20 19 18 18 18 17 17
14 13 9 11 13 14 13 13 21 10 18 20 20 29 33 40 41 46 52 55 56 55 53 50 47 47 44 42 40 37 35 34 33 32 30 28 26 24 21 20 19 19 18 18 17 17 17 17 17
11 16 9 12 4 6 5 9 12 15 22 27 26 34 29 30 38 42 49 50 53 53 51 49 46 44 42 40 38 35 32 32 31 29 27 25 24 21 21 20 19 18 17 17 17 17 17 17 17
7 13 11 3 3 3 4 5 8 6 10 13 15 21 32 37 39 32 41 44 46 48 49 48 42 39 38 39 36 33 32 31 30 28 26 24 23 23 22 19 18 18 18 18 19 19 19 18 18
8 5 2 3 12 13 5 3 5 9 10 12 12 9 22 27 28 33 33 37 39 42 45 40 37 37 37 35 32 32 31 30 29 28 26 25 23 22 20 19 18 18 18 20 20 20 20 20 20
6 7 3 3 5 3 2 6 9 15 5 7 9 14 15 16 19 23 26 30 32 36 38 35 34 34 34 33 32 31 30 29 28 27 25 23 22 21 21 20 19 20 20 21 22 22 22 23 22
4 8 11 5 5 3 4 6 1 0 3 3 11 14 8 14 19 21 22 26 32 34 34 32 32 32 31 31 31 29 28 27 26 25 23 22 21 21 21 21 20 20 21 21 22 22 21 21 19
Wind_Direction
197 185 169 147 64 63 254 253 255 289 289 193 112 141 135 89 161 195 149 156 159 171 177 180 185 182 179 176 169 160 161 153 148 146 145 143 140 141 142 142 144 150 156 159 160 176 192 213 248
184 185 169 119 106 181 257 246 253 230 247 147 118 122 88 122 132 149 155 168 168 177 185 187 194 195 194 184 173 167 162 161 156 154 151 152 152 157 161 158 157 168 170 172 185 215 226 247 251
193 185 168 144 159 202 227 229 239 222 194 229 122 125 151 158 166 159 167 163 171 181 189 185 189 189 191 184 181 177 174 174 172 169 167 163 163 165 165 167 168 181 197 208 221 234 247 255 256
184 181 163 138 217 244 211 293 355 161 202 188 149 117 165 169 168 173 171 172 173 181 189 189 189 193 202 195 188 184 182 181 179 175 172 171 169 169 172 178 184 195 206 218 231 243 248 252 258
179 165 167 234 244 233 236 250 293 269 220 195 175 179 170 160 164 176 177 177 176 181 190 192 194 199 204 191 189 188 187 185 184 181 180 180 180 183 191 200 210 222 231 239 244 247 251 254 256
177 160 123 231 251 258 266 257 256 223 235 205 154 147 167 195 192 182 180 184 180 181 187 193 196 203 200 192 192 192 190 188 187 187 188 190 192 196 207 219 224 230 235 244 252 259 261 262 263
168 123 221 233 246 283 240 243 214 232 211 216 178 142 188 188 195 194 186 187 184 187 189 195 200 208 197 197 197 195 195 195 195 196 197 200 201 207 216 223 225 228 235 243 254 262 268 270 270
197 137 211 232 238 260 256 236 252 213 216 207 174 184 196 193 187 192 190 186 189 193 201 200 203 201 197 197 200 200 199 199 199 201 205 207 208 214 219 225 230 236 245 254 265 276 283 285 281
200 145 216 227 195 228 227 346 290 226 203 189 191 190 210 194 182 187 188 192 196 202 207 210 200 197 199 200 202 203 202 204 207 210 212 215 220 226 229 230 237 245 256 269 279 286 289 293 292
187 187 216 211 217 236 170 201 287 233 194 192 201 209 199 186 186 190 195 198 201 205 206 208 197 198 200 202 202 203 205 208 212 214 217 221 228 231 232 235 242 251 260 269 278 283 285 288 290
207 227 224 233 219 233 223 297 265 210 251 213 206 196 182 183 187 197 203 209 211 209 209 201 200 200 204 204 203 205 209 213 217 220 224 226 227 230 232 236 243 251 261 269 276 282 287 289 290
247 224 231 243 241 247 243 239 235 223 232 264 235 224 192 190 195 202 208 209 211 213 214 209 203 203 205 208 210 212 215 218 220 224 228 231 235 235 239 242 246 252 262 273 280 285 288 290 291
248 271 241 241 246 244 254 230 233 231 252 244 217 210 209 202 207 209 213 214 215 214 216 217 213 208 207 208 210 214 216 220 222 225 228 229 232 236 239 243 251 261 270 277 283 287 291 295 296
245 226 249 264 257 244 244 263 215 235 241 250 236 223 217 216 218 213 212 216 217 220 220 218 221 220 215 213 214 215 217 220 221 223 226 229 230 235 241 247 254 264 272 277 282 289 293 296 296
241 261 263 243 249 233 238 251 239 244 245 245 239 231 226 227 224 223 224 217 218 220 220 222 223 224 226 220 219 220 220 221 223 225 228 231 234 236 238 245 255 262 266 273 281 288 293 296 296
260 232 240 244 192 225 194 247 229 239 245 240 243 246 238 235 232 230 225 222 220 221 221 224 223 223 225 226 222 221 221 221 223 224 227 229 230 233 237 242 248 252 260 271 280 287 291 293 294
218 249 229 251 209 203 201 255 231 244 247 240 244 246 246 238 232 230 225 224 224 225 224 224 225 225 224 223 223 223 222 222 223 223 225 228 231 233 237 241 245 253 264 272 280 286 289 290 290
224 212 239 192 200 201 228 244 243 236 233 236 241 242 242 242 236 231 226 223 223 226 227 227 229 226 225 224 221 221 220 222 225 224 226 227 230 234 238 242 247 255 263 271 279 285 289 291 291
229 228 242 242 238 230 231 250 236 235 249 233 241 240 239 239 243 232 226 225 223 224 226 225 225 224 220 220 218 218 220 219 221 224 226 226 229 232 236 242 247 254 262 271 278 283 286 287 290
223 231 246 269 227 228 249 256 211 216 236 232 232 237 237 239 240 236 225 223 224 225 222 224 226 226 223 224 224 225 225 224 227 226 228 227 229 232 236 241 248 255 263 271 276 280 282 285 289
222 222 231 223 190 247 284 271 240 229 249 256 243 246 250 256 251 236 224 222 222 222 225 225 223 223 225 225 223 225 224 224 223 222 224 226 228 232 238 246 252 259 265 269 274 277 277 278 278
224 216 229 226 219 242 160 261 248 239 237 243 239 235 243 241 242 242 228 222 225 226 226 228 224 222 224 223 221 223 223 221 225 228 228 228 231 235 240 245 255 260 265 270 272 272 274 275 272
227 220 226 225 230 242 223 248 249 208 235 237 239 226 236 241 239 236 232 230 234 228 226 224 220 222 223 221 223 224 225 227 232 232 228 228 230 232 239 246 252 262 267 268 268 268 268 268 266
221 154 218 225 224 228 225 216 256 223 228 239 249 243 233 236 238 240 239 237 230 226 221 221 220 220 221 220 222 224 227 226 225 223 223 224 228 235 238 244 255 260 265 266 264 264 263 263 263
212 182 214 217 220 238 212 202 237 203 231 231 237 246 241 238 238 238 240 237 233 226 216 214 215 216 217 218 220 223 226 227 225 221 221 225 229 232 242 251 257 259 259 261 260 259 260 260 260
211 196 197 218 206 230 150 218 240 224 245 253 252 256 258 247 242 240 242 240 235 227 213 212 213 214 215 215 218 221 221 219 218 221 222 223 232 241 246 251 252 256 259 259 259 256 257 259 258
184 207 220 82 349 118 183 275 305 215 235 252 247 248 249 247 248 245 236 232 228 223 211 209 208 209 210 211 213 214 213 215 217 217 220 226 233 243 247 248 249 253 256 257 257 257 258 260 256
219 160 232 242 223 232 235 245 224 268 225 250 277 252 259 258 245 235 227 220 218 216 204 203 206 206 204 207 209 210 210 213 215 220 225 231 236 241 244 246 250 254 256 258 259 260 258 262 258
179 207 200 168 158 182 201 244 206 236 232 257 272 295 265 230 217 209 206 208 209 199 195 196 198 199 199 201 204 206 207 210 217 222 227 231 234 236 241 245 248 253 256 257 258 259 260 259 258
200 200 183 186 218 215 170 267 302 320 229 251 282 294 230 205 196 197 196 192 184 184 187 188 192 195 198 200 200 202 208 213 219 223 226 229 232 237 240 243 245 247 251 253 253 254 254 252 252